This demonstration page uses our WeatherBlox Daily Observations layout. Learn more.

36.17497, -115.13722

Hourly Observations for February 11, 2015

Temp ( °F °C ) Dew Point ( °F °C ) Humidity (%) Winds ( mph kmh ) Pressure ( in mb ) Visibility ( mi km ) Precip ( " mm )
12:53 am 00:53 Clear 56 13.3 18 -7.8 22 22 N 5 7 30.17 1022 10 16.0934 0 0
1:53 am 01:53 Clear 53 11.7 18 -7.8 25 25 ENE 6 9 30.19 1022 10 16.0934 0 0
2:53 am 02:53 Clear 58 14.4 18 -7.8 21 21 NNE 9 15 30.19 1022 10 16.0934 0 0
3:53 am 03:53 Clear 56 13.3 19 -7.2 24 24 NE 8 13 30.21 1023 10 16.0934 0 0
4:53 am 04:53 Clear 56 13.3 20 -6.7 24 24 N 15 24 30.22 1023 10 16.0934 0 0
5:53 am 05:53 Clear 56 13.3 21 -6.1 26 26 N 12 19 30.24 1024 10 16.0934 0 0
6:53 am 06:53 Sunny 56 13.3 22 -5.6 27 27 NNW 14 22 30.27 1025 10 16.0934 0 0
7:53 am 07:53 Sunny 57 13.9 23 -5 27 27 NNW 15 24 30.29 1026 10 16.0934 0 0
8:53 am 08:53 Sunny 60 15.6 23 -5 24 24 N 12 19 30.31 1027 10 16.0934 0 0
9:53 am 09:53 Sunny 63 17.2 23 -5 22 22 N 7 11 30.32 1027 10 16.0934 0 0
10:53 am 10:53 Sunny 65 18.3 22 -5.6 19 19 ENE 7 11 30.31 1026 10 16.0934 0 0
11:53 am 11:53 Sunny 67 19.4 22 -5.6 18 18 ENE 8 13 30.29 1026 10 16.0934 0 0
12:53 pm 12:53 Sunny 68 20 21 -6.1 17 17 VRB 3 6 30.27 1025 10 16.0934 0 0
1:53 pm 13:53 Sunny 68 20 20 -6.7 16 16 Calm 30.24 1024 10 16.0934 0 0
2:53 pm 14:53 Sunny 71 21.7 20 -6.7 14 14 E 8 13 30.23 1024 10 16.0934 0 0
3:53 pm 15:53 Sunny 70 21.1 19 -7.2 14 14 Calm 30.23 1024 10 16.0934 0 0
4:53 pm 16:53 Sunny 71 21.7 18 -7.8 13 13 NW 3 6 30.22 1023 10 16.0934 0 0
5:53 pm 17:53 Clear 68 20 18 -7.8 15 15 NE 3 6 30.25 1024 10 16.0934 0 0
6:53 pm 18:53 Clear 63 17.2 21 -6.1 20 20 NNW 7 11 30.27 1025 10 16.0934 0 0
7:53 pm 19:53 Clear 60 15.6 22 -5.6 23 23 NNW 7 11 30.28 1026 10 16.0934 0 0
8:53 pm 20:53 Clear 60 15.6 20 -6.7 21 21 NNW 10 17 30.29 1026 10 16.0934 0 0
9:53 pm 21:53 Clear 60 15.6 18 -7.8 19 19 N 6 9 30.29 1026 10 16.0934 0 0
10:53 pm 22:53 Clear 58 14.4 17 -8.3 20 20 N 6 9 30.3 1026 10 16.0934 0 0
11:53 pm 23:53 Clear 56 13.3 18 -7.8 22 22 N 7 11 30.3 1026 10 16.0934 0 0

Powered by AerisWeather